JILIN-01-08

Satellite information

Favourite Embed

Satellite Type and Status

PAYLOADIN ORBIT

Key statistics

Satellite JILIN-01-08 at a glance.

Uptime

2885

Days in orbit

Revolutions

≈ 15.3

Per day

Orbit

SSO

Sun Synchronous Orbit

Inclination

97.2

Latest

Satellite identification and parameters

Extended collection of information and parameters for JILIN-01-08.

Object identification

Identified? True

Debris? False

Object name: JILIN-01-08

International designator: 2018-008F

Object number (NORAD): 43160

Object ID (CCSDS): 43160

Country: PEOPLES REPUBLIC OF CHINA (PRC)

Current information (Y/N): Y

RCS size: MEDIUM

Orbital parameters

Period: 94.086 minutes

Inclination: 97.196 deg

SMA: 6852.408 km

Apoapsis: 479.41 km

Periapsis: 469.136 km

RAAN: 5.9898 deg

Eccentricy: 0.00074967

Argument of periapsis: 37.1574 deg

Mean anomaly: 323.0184 deg

Mean motion: 15.30516354 rev/day

Mean motion (dot): 0.00012356 rev/day2

B* drag term: 0.00042068269 1/REarth

Two-line elements (TLE)

Creation date: Dec. 12, 2025, 10:14 a.m.

Reference frame: TEME

Reference center: EARTH

Epoch: Dec. 12, 2025, 7:34 a.m. UTC

TLE line 0: 0 JILIN-01-08

TLE line 1: 1 43160U 18008F 25346.31539240 .00012356 00000-0 42068-3 0 9998

TLE line 2: 2 43160 97.1960 5.9898 0007497 37.1574 323.0184 15.30516354436334

Live tracking on map

Real-time ground track for satellite JILIN-01-08.

In-orbit conjunctions

There are no conjunctions computed for JILIN-01-08, at the moment. Check back to stay up to date, as we update our databases every day.

Go to all conjunctions

Associated space launch

Jilin-1 is a series of Chinese commercial remote sensing satellites. These two satellites are sharing the ride with several cubesats.

JILIN-01-08 was lifted into orbit during the mission ‘Long March 11 | Jilin-1-07 (Deqing-1), Jilin-1-08’, on board a Long March 11 space rocket.

The launch took place on Jan. 19, 2018, 4:12 a.m. from Launch Area 95A.

For more information about the launch, click the button.

Launch to space Long March 11 | Jilin-1-07 (Deqing-1), Jilin-1-08
Long March 11 | Jilin-1-07 (Deqing-1), Jilin-1-08

Agency: N/A

Status: Launch Successful

Launch date: Jan. 19, 2018, 4:12 a.m. UTC

Rocket: Long March 11

Launch pad: Launch Area 95A

Location: Jiuquan Satellite Launch Center, People's Republic of China

...

Latest news about this satellite

There are no fresh news available about this satellite. Check back as we update our databases every day.


Newsletter sign-up

Weekly statistics, charts and insights to help you stay on top of the space industry.